Terminal Aerodrome Forecast
Issued by NWS

Home | Current Version | Previous Version | Text Only | Print | Product List | Glossary On
Versions: 1 2 3 4 5 6 7 8 9 10 11 12 13 14 15 16 17 18 19 20 21 22 23 24 25 26 27 28 29 30 31 32 33 34 35 36 37
000
FTAK31 PANC 021739
TAFAVD
TAF
PAVD 021739Z 0218/0318 VRB03KT P6SM FEW015 SCT100
     FM022100 25010KT P6SM FEW050 SCT120
     FM030500 08004KT P6SM SCT120 SCT200
      AMD LTD TO CLD VIS AND WIND=

USA.gov is the U.S. government's official web portal to all federal, state and local government web resources and services.